Wind_Speed
28 29 28 26 26 24 24 22 20 20 18 23 29 31 29 25 30 32 32 32 32 31 35 35 36 34 31 31 31 31 32 33 34 36 37 37 38 39 39 39 40 38 37 37
30 28 24 25 26 26 26 27 26 25 23 25 31 35 35 32 31 33 35 35 35 34 37 40 38 40 37 35 33 33 35 35 37 39 40 41 42 43 43 43 42 41 39 38
26 21 22 26 26 25 26 28 29 29 28 30 32 36 39 39 36 35 38 41 40 38 40 44 44 43 41 38 35 35 36 37 39 41 43 44 44 44 45 45 45 43 40 38
23 21 21 23 24 25 27 27 29 31 31 33 33 36 36 35 32 31 34 38 39 37 38 42 43 42 40 38 37 36 37 38 40 42 44 46 47 47 46 47 46 44 42 42
21 20 22 22 22 23 25 23 24 25 29 33 34 36 35 30 29 29 30 35 37 36 36 38 39 38 38 38 37 37 37 39 41 43 45 47 48 48 47 47 46 45 43 42
22 20 21 21 20 21 21 21 23 25 26 31 29 30 33 28 28 27 27 31 34 34 35 35 35 34 35 36 36 36 38 40 41 43 44 46 47 47 47 47 46 46 45 44
23 22 21 21 20 20 20 20 20 21 22 23 18 22 24 20 21 24 26 31 34 34 35 37 36 34 34 34 35 36 37 39 41 42 44 45 46 46 47 47 46 46 46 45
23 23 23 23 21 20 21 20 19 19 17 17 15 17 17 18 21 25 30 34 36 37 37 37 36 34 34 33 34 36 37 39 41 42 43 44 45 46 46 46 47 47 47 47
23 20 20 23 24 22 22 22 19 20 21 23 22 21 19 20 23 26 29 30 31 32 30 31 32 33 32 33 34 36 37 38 40 41 43 44 45 45 45 46 47 47 48 49
28 26 21 20 24 25 23 21 22 23 24 25 24 21 19 20 22 24 24 25 26 28 27 30 31 31 31 33 34 35 36 37 39 41 42 44 45 45 46 46 46 48 50 52
33 32 26 20 23 25 24 23 24 25 24 24 23 19 18 23 24 26 24 25 28 30 33 34 32 32 32 33 34 35 37 38 40 42 43 45 46 46 47 48 49 51 53 55
34 35 34 29 24 24 25 24 23 26 27 27 27 26 24 27 26 26 28 32 37 40 40 37 35 34 33 34 36 37 39 40 41 42 44 46 47 48 49 51 53 55 56 57
38 39 38 34 29 27 26 26 26 27 28 28 27 25 24 30 31 31 34 39 42 41 37 34 34 34 36 37 39 40 41 42 43 45 47 49 50 51 53 54 56 57 58 59
38 40 39 34 26 27 31 31 30 30 30 30 29 28 30 33 34 34 37 39 37 34 32 33 36 39 40 41 42 43 45 46 48 49 50 52 52 54 55 57 58 60 61 62
39 41 41 40 37 34 31 30 31 32 33 33 32 30 32 36 37 39 41 42 42 41 42 43 44 45 46 47 47 47 49 50 51 52 53 53 54 55 56 57 59 61 63 65
39 40 41 42 40 40 40 37 34 33 32 33 34 35 42 47 47 46 48 49 51 51 52 52 51 51 50 50 50 50 51 52 52 53 53 53 54 55 57 59 60 62 64 63
37 38 38 39 38 39 42 41 41 42 41 40 41 46 51 51 50 49 50 52 53 54 54 54 53 52 51 51 50 50 50 50 51 51 52 52 53 55 57 58 61 62 62 60
35 36 37 37 37 39 37 37 40 42 45 47 49 50 50 49 47 47 48 50 51 52 52 52 52 51 50 49 49 48 48 48 49 50 51 51 53 55 56 58 60 59 58 54
34 34 35 36 36 35 32 36 39 41 45 46 46 46 45 45 46 47 47 48 48 49 49 49 49 48 47 46 46 45 45 46 47 48 49 51 53 54 55 57 56 54 52 50
30 31 32 33 33 32 35 37 38 38 41 42 41 41 40 41 43 44 44 45 45 45 45 45 45 45 44 43 43 43 43 44 45 47 48 50 53 54 54 53 50 47 46 46
23 25 27 29 30 32 35 36 36 39 41 41 40 39 38 39 40 41 41 42 42 42 42 41 41 40 40 39 39 39 40 42 44 46 48 49 49 49 47 45 44 45 45 46
24 24 25 26 28 33 34 34 36 37 37 38 38 38 37 37 37 38 38 39 39 38 37 36 36 35 34 33 34 35 38 40 42 43 43 43 42 42 41 41 42 44 45 45
24 25 26 27 28 29 30 32 33 34 35 35 36 36 36 35 35 35 35 35 34 33 32 31 30 29 29 30 31 33 35 37 37 37 36 36 37 38 40 41 42 42 41 39
21 21 23 26 29 29 29 30 32 32 33 33 33 33 33 32 32 31 30 29 28 27 26 25 25 25 26 27 29 31 32 32 31 32 34 35 36 37 38 39 38 36 34 30
19 19 21 24 26 27 28 29 29 30 30 30 29 29 27 27 26 25 23 22 21 20 20 21 22 23 24 25 25 25 26 27 30 32 34 35 36 36 35 34 32 29 26 23
18 19 20 21 22 24 24 25 25 24 24 23 22 21 21 19 17 16 16 15 15 15 15 16 17 18 18 20 21 23 25 28 30 32 33 34 34 32 30 27 24 22 19 17
Wind_Direction
237 238 239 241 242 239 235 233 240 254 253 244 250 254 251 243 254 256 258 262 267 271 275 274 276 284 288 292 291 289 289 289 289 289 290 291 291 292 293 293 291 289 289 290
236 238 239 239 238 238 235 231 230 232 231 235 243 249 251 243 245 259 263 261 261 264 267 271 275 281 286 287 287 287 286 285 284 285 286 287 288 289 290 291 292 289 290 290
237 234 237 238 236 237 239 239 236 236 232 229 236 247 253 258 254 253 260 265 267 266 266 269 275 279 282 284 285 283 282 281 281 282 283 284 284 286 288 289 291 291 288 290
229 221 229 239 239 239 242 244 243 240 240 239 241 254 260 270 274 267 262 263 268 271 270 271 274 278 281 282 281 280 279 279 279 280 281 283 283 285 288 289 289 289 290 290
222 221 228 238 240 239 243 244 247 249 251 251 248 253 259 262 266 268 270 266 268 273 273 272 274 275 275 277 278 277 277 278 279 279 279 281 284 286 288 289 288 289 291 292
217 220 232 236 242 243 243 244 247 249 253 258 263 265 268 264 262 267 266 262 264 270 270 274 276 275 272 273 274 275 276 278 279 280 281 283 285 287 288 288 288 289 290 291
222 219 227 235 235 243 246 246 249 256 262 273 286 282 285 281 262 255 252 253 259 263 267 273 276 274 272 271 273 274 276 277 279 281 282 283 285 286 287 286 287 288 289 291
230 230 228 236 242 240 246 251 249 248 255 266 268 273 276 263 251 245 247 253 262 269 271 270 270 270 268 269 271 274 276 277 279 281 281 283 284 285 286 286 287 288 289 292
225 239 252 253 254 248 236 243 253 258 256 254 251 248 255 270 273 269 266 266 266 269 271 267 267 266 267 270 272 273 275 277 278 279 280 283 285 285 286 287 288 290 292 294
218 219 220 239 248 253 250 240 240 247 255 261 263 267 272 268 262 260 258 258 259 260 269 270 270 268 269 271 272 273 275 276 277 279 280 283 284 287 288 290 291 292 294 295
221 222 215 212 229 238 249 252 246 245 247 256 264 264 266 263 257 254 259 262 264 266 274 273 274 275 273 273 273 274 275 276 278 280 282 285 287 288 290 291 292 292 294 295
227 227 224 218 224 241 244 246 251 253 252 251 255 257 260 266 265 261 260 262 265 268 272 273 278 278 277 276 276 276 278 280 282 284 285 287 289 291 292 292 293 293 294 295
232 234 235 233 231 235 243 242 240 246 252 254 255 261 264 267 265 263 263 264 268 267 266 272 278 281 281 279 279 279 280 282 284 286 288 289 290 291 292 293 294 294 294 294
238 241 241 237 233 235 233 234 236 240 245 252 254 256 258 261 262 263 264 264 263 266 272 278 281 282 282 281 280 280 282 284 286 287 288 289 290 291 292 293 293 293 293 292
241 242 242 239 231 232 237 235 235 235 233 238 244 251 258 260 260 260 262 264 269 277 282 284 284 283 282 281 281 282 283 284 286 287 288 289 290 291 292 293 293 293 292 292
244 244 245 244 241 238 239 240 242 243 244 248 252 259 259 258 259 262 266 270 275 278 281 282 283 283 283 283 283 283 284 285 285 286 288 289 290 291 292 292 292 292 293 294
253 251 250 250 249 247 246 246 249 251 252 255 255 256 261 265 268 271 273 274 276 277 279 281 283 284 284 285 285 284 284 284 285 286 287 288 289 290 290 291 292 293 295 298
252 252 252 252 251 250 253 250 250 252 254 255 259 264 268 272 273 274 274 274 276 278 280 282 283 285 285 285 285 284 284 284 285 286 286 287 288 289 290 292 293 295 298 300
251 251 252 252 253 255 253 253 253 255 257 261 264 268 271 273 273 273 274 276 277 279 280 282 283 285 285 285 285 284 284 284 285 286 287 288 288 289 291 292 294 297 299 301
252 252 251 250 251 249 247 251 255 259 262 265 268 270 272 273 273 275 276 277 279 280 282 283 284 285 285 285 284 284 284 285 285 286 286 287 289 290 292 294 297 300 301 302
254 256 254 252 251 248 250 253 256 257 262 269 272 273 273 273 274 276 278 279 280 282 283 284 284 285 285 285 285 285 285 284 285 286 288 289 290 293 295 298 301 302 302 303
257 257 255 252 250 248 254 256 258 262 267 270 272 273 274 275 276 277 279 280 281 282 283 284 285 286 287 288 287 287 286 286 287 288 290 293 296 299 301 302 302 303 304 305
253 253 253 254 255 257 259 261 263 265 267 269 271 273 275 275 276 278 279 280 281 282 283 284 286 288 289 288 287 286 287 288 291 294 297 301 302 303 303 304 305 307 308 309
255 254 254 256 259 262 264 266 268 268 269 270 271 273 273 274 275 278 279 281 282 283 284 286 288 289 290 289 288 288 291 295 300 302 303 304 304 305 307 309 310 312 313 314
258 260 259 259 261 264 267 268 269 270 272 272 271 271 270 271 274 276 277 279 281 283 286 288 290 291 290 291 295 299 303 306 306 306 306 307 309 311 313 314 316 317 318 319
262 264 263 263 265 267 268 269 271 272 273 271 269 266 266 266 269 273 275 277 280 284 288 289 292 295 298 303 306 309 309 309 309 310 311 313 315 317 318 319 321 322 323 324
Height
5820 5824 5827 5831 5834 5837 5839 5842 5847 5851 5855 5857 5856 5856 5859 5861 5859 5859 5860 5860 5861 5860 5857 5853 5851 5850 5848 5848 5849 5849 5847 5847 5845 5844 5843 5841 5839 5838 5837 5835 5832 5830 5828 5826
5815 5819 5823 5825 5827 5830 5833 5836 5840 5845 5850 5852 5851 5850 5851 5853 5855 5852 5852 5854 5855 5855 5851 5847 5844 5845 5845 5844 5843 5841 5841 5840 5839 5837 5836 5834 5833 5831 5829 5827 5825 5823 5820 5818
5809 5815 5817 5819 5822 5825 5829 5832 5835 5838 5841 5842 5844 5842 5842 5844 5847 5848 5846 5846 5847 5847 5844 5840 5839 5839 5838 5837 5836 5835 5834 5833 5831 5830 5828 5826 5824 5823 5822 5819 5817 5815 5812 5810
5804 5808 5813 5815 5817 5821 5823 5826 5828 5830 5832 5834 5837 5836 5837 5837 5838 5839 5839 5838 5838 5839 5837 5833 5832 5831 5830 5829 5829 5828 5827 5825 5824 5822 5820 5818 5816 5814 5813 5810 5808 5806 5803 5801
5800 5804 5807 5810 5813 5815 5817 5820 5822 5824 5825 5826 5828 5828 5829 5832 5833 5833 5832 5831 5830 5830 5828 5825 5824 5824 5822 5822 5821 5820 5818 5817 5815 5814 5812 5810 5807 5805 5803 5801 5798 5796 5794 5791
5795 5800 5803 5805 5808 5809 5811 5814 5815 5817 5818 5819 5821 5822 5821 5825 5827 5828 5827 5824 5822 5821 5818 5817 5817 5816 5815 5813 5812 5811 5810 5808 5807 5805 5804 5801 5798 5796 5793 5791 5788 5786 5784 5781
5791 5794 5798 5801 5803 5805 5807 5809 5811 5812 5813 5814 5817 5816 5816 5819 5820 5821 5820 5817 5814 5813 5811 5809 5809 5808 5807 5805 5804 5803 5801 5800 5798 5797 5795 5792 5790 5787 5784 5781 5778 5775 5773 5771
5786 5790 5793 5796 5798 5800 5802 5804 5806 5808 5811 5813 5815 5814 5814 5812 5812 5811 5811 5809 5808 5806 5804 5801 5800 5799 5797 5796 5795 5794 5792 5791 5789 5787 5785 5783 5780 5778 5775 5771 5768 5765 5762 5759
5782 5787 5790 5790 5792 5795 5797 5799 5802 5803 5803 5804 5806 5808 5809 5807 5805 5804 5803 5802 5800 5796 5794 5792 5792 5790 5789 5788 5787 5786 5784 5783 5781 5779 5776 5774 5771 5768 5765 5762 5758 5755 5751 5747
5774 5779 5784 5787 5788 5788 5791 5794 5796 5797 5798 5798 5800 5803 5804 5802 5799 5796 5794 5792 5790 5787 5785 5784 5783 5781 5781 5780 5779 5778 5776 5774 5772 5770 5767 5765 5762 5759 5755 5751 5748 5744 5739 5735
5767 5771 5776 5781 5783 5785 5787 5787 5789 5791 5793 5794 5795 5799 5796 5792 5790 5788 5787 5784 5781 5778 5777 5775 5772 5773 5773 5772 5771 5769 5768 5765 5763 5761 5758 5755 5752 5748 5744 5741 5737 5732 5727 5722
5760 5763 5767 5773 5778 5780 5781 5782 5784 5784 5784 5786 5787 5791 5789 5784 5783 5781 5779 5776 5772 5770 5769 5767 5766 5765 5765 5764 5762 5761 5759 5757 5754 5752 5748 5745 5741 5737 5733 5729 5724 5720 5714 5709
5752 5756 5760 5765 5771 5773 5773 5775 5777 5778 5778 5778 5780 5784 5781 5774 5773 5773 5771 5767 5763 5759 5758 5759 5758 5757 5756 5755 5754 5752 5749 5747 5744 5741 5738 5734 5730 5726 5721 5716 5711 5706 5701 5695
5745 5748 5753 5758 5763 5763 5762 5765 5767 5770 5771 5771 5772 5773 5769 5762 5763 5763 5761 5758 5751 5747 5748 5751 5751 5749 5748 5746 5744 5742 5739 5736 5733 5729 5726 5722 5718 5713 5709 5703 5698 5692 5687 5681
5735 5739 5742 5746 5750 5752 5753 5754 5756 5757 5759 5760 5761 5761 5757 5752 5752 5752 5751 5749 5746 5743 5742 5742 5741 5739 5737 5735 5733 5731 5727 5724 5720 5717 5713 5709 5705 5700 5695 5690 5684 5679 5673 5667
5725 5729 5732 5735 5740 5743 5744 5746 5748 5748 5749 5749 5750 5750 5743 5742 5742 5742 5742 5741 5739 5736 5734 5732 5730 5728 5725 5723 5721 5718 5715 5711 5707 5704 5700 5696 5692 5687 5682 5677 5671 5665 5659 5653
5716 5720 5723 5726 5730 5731 5734 5738 5739 5740 5740 5738 5737 5733 5731 5732 5734 5735 5734 5732 5729 5726 5723 5720 5718 5716 5713 5711 5708 5705 5702 5698 5694 5691 5687 5683 5679 5674 5669 5663 5658 5652 5646 5640
5708 5710 5713 5716 5719 5721 5728 5726 5727 5728 5726 5725 5724 5723 5723 5723 5724 5723 5722 5720 5718 5715 5712 5709 5706 5704 5701 5698 5695 5692 5689 5686 5682 5679 5674 5670 5666 5661 5656 5651 5645 5639 5633 5628
5699 5702 5704 5707 5709 5712 5715 5713 5715 5717 5713 5715 5715 5715 5714 5713 5712 5711 5710 5708 5706 5703 5701 5698 5695 5692 5688 5686 5683 5680 5677 5674 5671 5667 5663 5659 5654 5649 5644 5638 5633 5627 5622 5616
5691 5693 5696 5698 5700 5703 5702 5703 5704 5707 5702 5704 5704 5705 5704 5703 5700 5699 5698 5696 5694 5691 5689 5686 5683 5680 5677 5674 5672 5669 5666 5663 5659 5655 5651 5647 5642 5637 5632 5627 5621 5616 5611 5605
5684 5686 5688 5690 5692 5692 5692 5694 5696 5697 5694 5694 5694 5694 5693 5692 5690 5689 5687 5685 5683 5680 5678 5675 5672 5670 5667 5664 5662 5659 5656 5653 5649 5645 5640 5636 5631 5626 5621 5615 5610 5605 5600 5594
5679 5681 5682 5682 5683 5684 5684 5685 5687 5686 5685 5684 5684 5683 5682 5681 5680 5678 5676 5675 5673 5670 5668 5666 5663 5661 5658 5656 5653 5650 5647 5643 5639 5635 5630 5625 5620 5615 5611 5606 5600 5595 5589 5583
5674 5675 5675 5676 5677 5676 5676 5677 5677 5677 5676 5675 5674 5673 5672 5671 5670 5669 5667 5666 5664 5662 5660 5658 5656 5653 5651 5649 5646 5643 5639 5635 5630 5626 5621 5616 5612 5606 5601 5596 5590 5584 5578 5572
5668 5669 5670 5669 5668 5669 5669 5669 5669 5668 5667 5667 5666 5665 5664 5663 5661 5660 5659 5658 5656 5655 5653 5651 5649 5647 5645 5642 5639 5635 5631 5627 5622 5618 5614 5609 5604 5598 5592 5586 5580 5574 5568 5563
5663 5664 5664 5664 5663 5663 5662 5661 5660 5660 5659 5658 5657 5656 5656 5655 5654 5654 5653 5652 5650 5649 5648 5646 5644 5642 5640 5637 5633 5629 5625 5621 5616 5612 5607 5601 5595 5589 5583 5576 5571 5566 5561 5557
5659 5659 5659 5658 5657 5656 5655 5654 5653 5652 5651 5651 5650 5650 5649 5649 5649 5649 5648 5648 5647 5645 5644 5642 5640 5638 5635 5632 5628 5624 5620 5616 5610 5605 5599 5592 5586 5581 5575 5570 5565 5559 5556 5552